Voltar ao catálogo

NOAA 17 DEB

AtivoPO
NORAD 48717·DEBRIS·🇺🇸 United States

Lançado Jun 24, 2002 de Vandenberg Space Force Base

Loading…

Próximas Passagens (próximas 24 horas)

TLE

AtualizadoSource: Space-Track

Época: Sep 13, 2026, 23:15 UTC

1 48717U 02032BA  26256.96908367  .00005389  00000-0  11995-2 0  9995
2 48717  98.7740 256.5979 0006878 358.7323   1.3855 14.57358535288171

Acompanhe NOAA 17 DEB em tempo real com AllMySat

Download on the App Store